[[{"header":{"parameterUnit":"m.s-1","parameterCategory":1,"la1":30.2991,"la2":30.254,"lo1":-89.0895,"lo2":-89.0444,"dy":0.0017,"dx":0.0017,"nx":28,"ny":28,"refTime":"2026-01-06T03:00:00:Z","depth":0,"parameterNumber":2,"parameterNumberName":"U-component_of_WINDS"},"data":[0,0,0,0,0,0,0,0,0,0,0,0,0,0,0,0,0,0,0,0,0,0,0,0,0,0,0,0,0,0,0,0,0,0,0,0,0,0,0,0,0,0,0,0,0,0,0,0,0,0,0,0,0,0,0,0,0,0,-2.1722,-2.1723,0,-2.1781,-2.1781,-2.1782,-2.18,-2.18,-2.1799,-2.1799,-2.1859,-2.1861,-2.1863,0,0,0,0,0,0,0,0,0,0,0,0,0,-2.1624,-2.1626,-2.1722,-2.1723,-2.1723,-2.1781,-2.1782,-2.1782,-2.18,-2.18,-2.1799,-2.1799,-2.1858,-2.1861,-2.1863,0,0,0,0,0,0,0,0,0,0,0,0,0,-2.1673,-2.1626,-2.1722,-2.1739,-2.1741,-2.1781,-2.1782,-2.1783,-2.18,-2.18,-2.1799,-2.1799,-2.1858,-2.186,-2.1863,-2.1889,0,0,-2.1872,-2.1873,0,0,0,0,0,0,0,0,-2.167,-2.1676,-2.1736,-2.1738,-2.1741,-2.1783,-2.1769,-2.1818,-2.18,-2.1778,-2.1799,-2.1799,-2.1834,-2.1839,-2.1851,-2.1892,-2.1895,-2.1872,-2.1874,-2.1875,-2.1876,0,0,0,0,0,0,0,-2.1667,-2.1674,-2.1745,-2.1737,-2.174,-2.1744,-2.175,-2.1778,-2.1808,-2.178,-2.1781,-2.1788,-2.1835,-2.1848,-2.1852,-2.1895,-2.1872,-2.1874,-2.1876,-2.1877,-2.196,-2.1961,0,0,0,0,0,0,-2.166,-2.1671,-2.1743,-2.1747,-2.1704,-2.1746,-2.1753,-2.177,-2.1807,-2.1813,-2.1788,-2.1788,-2.1843,-2.1849,-2.1854,-2.1886,-2.1875,-2.1877,-2.1879,-2.196,-2.196,-2.1961,0,0,0,0,0,0,-2.1658,-2.1667,-2.1741,-2.1709,-2.1719,-2.1748,-2.1766,-2.1771,-2.1784,-2.1814,-2.1819,-2.1796,-2.1843,-2.185,-2.188,-2.1889,-2.1879,-2.1881,-2.1959,-2.196,-2.196,-2.1951,0,0,0,0,0,0,-2.1655,-2.1666,-2.1676,-2.171,-2.1721,-2.1766,-2.1767,-2.1772,-2.1789,-2.1789,-2.1822,-2.1827,-2.1843,-2.1876,-2.1883,-2.1892,-2.1883,-2.1958,-2.1959,-2.196,-2.1951,-2.1952,-2.1953,0,0,0,0,0,-2.1652,-2.1672,-2.1677,-2.1685,-2.1735,-2.1767,-2.1773,-2.1791,-2.1789,-2.18,-2.1819,-2.1826,-2.1887,-2.1879,-2.1887,-2.1897,-2.1958,-2.1959,-2.196,-2.1951,-2.1952,-2.1952,0,0,0,0,0,0,-2.1639,-2.1676,-2.1682,-2.1714,-2.1737,-2.177,-2.1783,-2.1792,-2.1816,-2.1815,-2.1837,-2.1844,-2.1872,-2.1888,-2.1878,-2.1924,-2.1923,-2.1925,-2.1913,-2.1914,-2.1914,-2.191,-2.1886,0,0,0,0,0,-2.164,-2.1663,-2.1694,-2.1719,-2.173,-2.1755,-2.1769,-2.1781,-2.1806,-2.1816,-2.1837,-2.186,-2.1885,-2.19,-2.1924,-2.1954,-2.1961,-2.1965,-2.1966,-2.1966,-2.1968,-2.1984,-2.1986,-2.1965,-2.1965,-2.1965,0,0,-2.1641,-2.1665,-2.1678,-2.1717,-2.1736,-2.1759,-2.1763,-2.1787,-2.1804,-2.1819,-2.1848,-2.1865,-2.1893,-2.1922,-2.1936,-2.1936,-2.1975,-2.1967,-2.1968,-2.1969,-2.1985,-2.1987,-2.1989,-2.1965,-2.1965,-2.1965,0,0,-2.1656,-2.1677,-2.1699,-2.1718,-2.1747,-2.1763,-2.1768,-2.18,-2.1811,-2.1841,-2.1852,-2.1873,-2.1914,-2.1933,-2.1948,-2.1969,-2.1977,-2.1977,-2.198,-2.1995,-2.1997,-2.1998,-2.2005,-2.2007,-2.1979,-2.1979,-2.1979,0,-2.1655,-2.169,-2.1709,-2.1732,-2.1749,-2.1763,-2.1785,-2.1803,-2.1838,-2.1849,-2.1849,-2.19,-2.192,-2.1954,-2.1959,-2.1971,-2.1977,-2.1973,-2.1995,-2.1997,-2.1998,-2.2005,-2.2008,-2.1978,-2.1978,-2.1978,-2.1978,0,-2.1686,-2.171,-2.1724,-2.1758,-2.1776,-2.1798,-2.182,-2.1836,-2.1846,-2.1862,-2.1892,-2.1916,-2.1945,-2.1954,-2.1964,-2.1989,-2.1988,-2.1991,-2.199,-2.2,-2.2006,-2.2009,-2.1978,-2.1978,-2.1978,-2.1978,0,0,-2.1694,-2.1737,-2.1742,-2.1757,-2.179,-2.1809,-2.1832,-2.186,-2.1873,-2.1896,-2.1916,-2.195,-2.1953,-2.197,-2.1983,-2.1996,-2.201,-2.1998,-2.1999,-2.1998,-2.2037,-2.2034,-2.2037,-2.2015,-2.2016,-2.2017,-2.2035,0,-2.1712,-2.1754,-2.1772,-2.1805,-2.1827,-2.1841,-2.1861,-2.1883,-2.1899,-2.1919,-2.1936,-2.196,-2.1963,-2.1973,-2.1987,-2.2005,-2.2018,-2.2004,-2.2033,-2.2034,-2.2025,-2.2041,-2.2037,-2.2054,-2.2038,-2.2038,-2.2038,0,-2.1739,-2.1763,-2.1798,-2.1828,-2.1837,-2.1855,-2.1882,-2.1901,-2.1926,-2.1937,-2.1955,-2.1967,-2.1991,-2.1989,-2.2022,-2.2012,-2.2025,-2.2036,-2.2037,-2.204,-2.2036,-2.2043,-2.2059,-2.2061,-2.2043,-2.2042,-2.2042,0,-2.174,-2.1781,-2.1807,-2.182,-2.1855,-2.1867,-2.1882,-2.1906,-2.1922,-2.1945,-2.1955,-2.1981,-2.1995,-2.2015,-2.2033,-2.2029,-2.2064,-2.2063,-2.2073,-2.2072,-2.2079,-2.2078,-2.2097,-2.2088,-2.2088,-2.2088,-2.2088,0,-2.1758,-2.1779,-2.1808,-2.1824,-2.1848,-2.1868,-2.189,-2.1906,-2.1928,-2.1947,-2.1961,-2.1979,-2.2002,-2.2023,-2.2037,-2.2062,-2.2068,-2.2077,-2.2081,-2.2075,-2.2074,-2.2084,-2.2083,-2.2089,-2.2089,-2.2089,-2.2089,0,-2.1763,-2.1784,-2.1813,-2.1844,-2.1852,-2.1868,-2.1894,-2.191,-2.1926,-2.195,-2.1957,-2.1982,-2.2006,-2.2027,-2.2059,-2.2069,-2.2095,-2.2099,-2.2086,-2.2088,-2.2096,-2.2095,-2.2121,-2.2125,-2.2114,-2.2114,-2.2114,0,-2.1773,-2.1789,-2.1822,-2.1835,-2.185,-2.1872,-2.1888,-2.1908,-2.1924,-2.1953,-2.1965,-2.1991,-2.2013,-2.2051,-2.2073,-2.2097,-2.2102,-2.2109,-2.2106,-2.21,-2.2101,-2.21,-2.2101,-2.211,-2.211,-2.211,-2.211,0,-2.1788,-2.1797,-2.1819,-2.1844,-2.1863,-2.1884,-2.1905,-2.1915,-2.1939,-2.1956,-2.1981,-2.1998,-2.2031,-2.2056,-2.2083,-2.2099,-2.2108,-2.2111,-2.2114,-2.2109,-2.21,-2.2104,-2.2086,-2.211,-2.211,-2.211,-2.211,-2.211,-2.1795,-2.181,-2.1834,-2.1858,-2.1877,-2.1896,-2.1912,-2.193,-2.1952,-2.198,-2.199,-2.2016,-2.204,-2.2077,-2.2093,-2.2113,-2.2114,-2.2119,-2.2121,-2.2121,-2.212,-2.2097,-2.2118,-2.2118,-2.2118,-2.2118,-2.2118,0,-2.181,-2.1826,-2.1848,-2.1877,-2.1896,-2.1903,-2.1927,-2.1942,-2.1964,-2.1986,-2.2007,-2.2036,-2.206,-2.2083,-2.2108,-2.212,-2.2125,-2.2126,-2.2125,-2.2128,-2.2118,-2.2112,-2.2122,-2.2122,-2.2122,-2.2122,-2.2122,-2.2122,-2.1819,-2.1845,-2.1856,-2.189,-2.1907,-2.1932,-2.1945,-2.1963,-2.198,-2.2012,-2.2032,-2.2047,-2.2069,-2.2096,-2.2118,-2.2125,-2.2133,-2.2133,-2.214,-2.213,-2.2129,-2.2129,-2.2123,-2.2135,-2.2135,-2.2148,-2.2148,-2.2149]},{"header":{"parameterUnit":"m.s-1","parameterCategory":1,"la1":30.2991,"la2":30.254,"lo1":-89.0895,"lo2":-89.0444,"dy":0.0017,"dx":0.0017,"nx":28,"ny":28,"refTime":"2026-01-06T03:00:00:Z","depth":0,"parameterNumber":3,"parameterNumberName":"V-component_of_WINDS"},"data":[0,0,0,0,0,0,0,0,0,0,0,0,0,0,0,0,0,0,0,0,0,0,0,0,0,0,0,0,0,0,0,0,0,0,0,0,0,0,0,0,0,0,0,0,0,0,0,0,0,0,0,0,0,0,0,0,0,0,1.0689,1.0689,0,1.0691,1.0691,1.0691,1.0687,1.0686,1.0686,1.0686,1.0689,1.0689,1.0689,0,0,0,0,0,0,0,0,0,0,0,0,0,1.0683,1.0683,1.0689,1.0689,1.0689,1.0691,1.0691,1.0691,1.0687,1.0686,1.0686,1.0686,1.0689,1.0689,1.0689,0,0,0,0,0,0,0,0,0,0,0,0,0,1.0685,1.0683,1.0689,1.0687,1.0687,1.0691,1.0691,1.0691,1.0687,1.0686,1.0686,1.0686,1.0689,1.0689,1.0689,1.0695,0,0,1.069,1.069,0,0,0,0,0,0,0,0,1.0685,1.0686,1.0687,1.0687,1.0687,1.0688,1.069,1.0692,1.0687,1.0687,1.0686,1.0686,1.0689,1.0689,1.069,1.0696,1.0696,1.069,1.0691,1.0691,1.0691,0,0,0,0,0,0,0,1.0685,1.0685,1.069,1.0687,1.0687,1.0687,1.0687,1.069,1.0689,1.0687,1.0686,1.0687,1.0689,1.069,1.069,1.0696,1.069,1.0691,1.0691,1.0691,1.0708,1.0709,0,0,0,0,0,0,1.0685,1.0685,1.069,1.069,1.0686,1.0687,1.0687,1.0688,1.0689,1.0689,1.0687,1.0686,1.0689,1.069,1.069,1.0699,1.0691,1.0691,1.0691,1.0708,1.0709,1.0709,0,0,0,0,0,0,1.0685,1.0685,1.0689,1.0687,1.0688,1.0687,1.0688,1.0688,1.0689,1.0689,1.0689,1.0688,1.0689,1.069,1.0695,1.0699,1.0691,1.0691,1.0708,1.0708,1.0709,1.0715,0,0,0,0,0,0,1.0685,1.0685,1.0687,1.0688,1.0688,1.0693,1.0689,1.0688,1.069,1.0689,1.069,1.069,1.0689,1.0694,1.0695,1.0699,1.0692,1.0707,1.0708,1.0709,1.0714,1.0716,1.0717,0,0,0,0,0,1.0684,1.0689,1.0687,1.0688,1.069,1.0694,1.0694,1.0693,1.069,1.0692,1.0692,1.069,1.0698,1.0695,1.0695,1.07,1.0707,1.0708,1.0709,1.0714,1.0715,1.0716,0,0,0,0,0,0,1.0688,1.0688,1.0687,1.0691,1.0692,1.0693,1.0695,1.0694,1.0696,1.0695,1.0694,1.0694,1.07,1.07,1.0696,1.0707,1.0702,1.0703,1.0706,1.0707,1.0709,1.0709,1.0692,0,0,0,0,0,1.069,1.0692,1.0692,1.0696,1.0697,1.0696,1.0697,1.0696,1.0698,1.0698,1.0699,1.07,1.0703,1.0705,1.0708,1.0714,1.0715,1.0718,1.0719,1.072,1.0721,1.0726,1.0727,1.0711,1.0711,1.0711,0,0,1.0693,1.0693,1.0694,1.0697,1.0698,1.0701,1.0696,1.0699,1.0702,1.0699,1.0704,1.0704,1.0706,1.0712,1.0715,1.0713,1.0726,1.0721,1.0721,1.0722,1.0727,1.0728,1.073,1.0711,1.0711,1.0711,0,0,1.0699,1.0699,1.0703,1.0704,1.0706,1.0706,1.0707,1.0708,1.0708,1.0713,1.0711,1.0714,1.0719,1.0721,1.0723,1.0732,1.0731,1.0733,1.0739,1.0744,1.0745,1.0746,1.0751,1.0753,1.0734,1.0734,1.0734,0,1.0703,1.0707,1.0705,1.0709,1.0711,1.0708,1.0713,1.0714,1.0716,1.0718,1.0716,1.0723,1.0724,1.0731,1.0734,1.0735,1.0737,1.0733,1.0745,1.0746,1.0747,1.0752,1.0754,1.0734,1.0734,1.0734,1.0734,0,1.0712,1.0715,1.0718,1.0721,1.0723,1.0727,1.0727,1.0729,1.0728,1.0729,1.0735,1.0736,1.074,1.0741,1.074,1.0749,1.0748,1.0745,1.0741,1.0749,1.0754,1.0755,1.0735,1.0735,1.0735,1.0735,0,0,1.072,1.0723,1.0724,1.0726,1.0729,1.0731,1.0736,1.074,1.0742,1.0745,1.0749,1.0754,1.0752,1.0754,1.0754,1.0758,1.0767,1.0755,1.0755,1.0758,1.0779,1.0782,1.0784,1.0766,1.0767,1.0767,1.0779,0,1.0728,1.0735,1.0735,1.0743,1.0747,1.0745,1.0749,1.0752,1.0753,1.0756,1.0758,1.0762,1.0758,1.076,1.0764,1.0765,1.0772,1.0764,1.0772,1.0772,1.0772,1.0786,1.0788,1.08,1.0781,1.0781,1.0781,0,1.0737,1.074,1.0749,1.0752,1.0753,1.0757,1.0762,1.0765,1.0768,1.0769,1.0772,1.0771,1.0777,1.0773,1.0781,1.0777,1.078,1.0781,1.0782,1.0783,1.0778,1.0788,1.0803,1.0805,1.0784,1.0784,1.0783,0,1.0744,1.075,1.0756,1.0758,1.0762,1.0765,1.0766,1.077,1.0772,1.0777,1.0779,1.0783,1.0786,1.079,1.0791,1.0787,1.0801,1.0796,1.0802,1.0802,1.0805,1.0805,1.0822,1.0806,1.0806,1.0806,1.0806,0,1.0753,1.0758,1.076,1.0763,1.077,1.077,1.0777,1.0778,1.0781,1.0786,1.0785,1.079,1.0791,1.0796,1.0797,1.0805,1.0806,1.0807,1.0808,1.0808,1.0808,1.081,1.081,1.0806,1.0806,1.0806,1.0806,0,1.0761,1.0762,1.0769,1.0773,1.0774,1.0779,1.0782,1.0786,1.0788,1.0794,1.0796,1.0798,1.0804,1.0806,1.0813,1.0814,1.0824,1.0823,1.0823,1.0823,1.083,1.083,1.085,1.0853,1.0834,1.0834,1.0834,0,1.0767,1.0771,1.0776,1.0779,1.0781,1.0786,1.0789,1.079,1.0794,1.0799,1.0803,1.081,1.0815,1.0825,1.0828,1.0834,1.0834,1.0841,1.0835,1.0836,1.0836,1.0836,1.0837,1.0842,1.0842,1.0842,1.0842,0,1.0777,1.0778,1.0783,1.0788,1.0793,1.0797,1.0801,1.0804,1.0806,1.081,1.0817,1.0821,1.0829,1.0836,1.0843,1.0845,1.0845,1.0844,1.0846,1.0847,1.0847,1.0849,1.0827,1.0844,1.0844,1.0844,1.0843,1.0843,1.0785,1.079,1.0794,1.08,1.0803,1.0808,1.0813,1.0815,1.0821,1.0828,1.0828,1.0836,1.0841,1.085,1.0853,1.086,1.0858,1.0861,1.0862,1.0862,1.0864,1.0846,1.0861,1.0861,1.0861,1.0861,1.0861,0,1.0797,1.08,1.0805,1.0812,1.0817,1.0816,1.0821,1.0826,1.0832,1.0837,1.0843,1.0852,1.0859,1.0863,1.087,1.0875,1.0875,1.0877,1.0877,1.0879,1.0864,1.0862,1.0877,1.0877,1.0877,1.0877,1.0877,1.0877,1.0803,1.0811,1.0813,1.0824,1.0827,1.0835,1.0838,1.0843,1.0847,1.0857,1.0863,1.0865,1.0871,1.0879,1.0886,1.0887,1.089,1.0893,1.0894,1.0881,1.0879,1.0878,1.0876,1.0893,1.0893,1.0908,1.0908,1.0908]}]]